TimeCST,TemperatureF,Dew PointF,Humidity,Sea Level PressureIn,VisibilityMPH,Wind Direction,Wind SpeedMPH,Gust SpeedMPH,PrecipitationIn,Events,Conditions,WindDirDegrees,DateUTC
12:14 AM,37.4,30.2,75,30.07,5.0,Calm,Calm,-,N/A,,Haze,0,2012-11-20 06:14:00
12:33 AM,35.6,30.2,81,30.07,5.0,Calm,Calm,-,N/A,,Haze,0,2012-11-20 06:33:00
12:53 AM,37.4,30.2,75,30.07,4.0,Calm,Calm,-,N/A,,Haze,0,2012-11-20 06:53:00
1:13 AM,37.4,32.0,81,30.07,5.0,Calm,Calm,-,N/A,,Haze,0,2012-11-20 07:13:00
1:33 AM,35.6,28.4,75,30.07,7.0,Calm,Calm,-,N/A,,Clear,0,2012-11-20 07:33:00
1:53 AM,33.8,28.4,81,30.08,5.0,Calm,Calm,-,N/A,,Haze,0,2012-11-20 07:53:00
2:13 AM,35.6,30.2,81,30.08,5.0,Calm,Calm,-,N/A,,Haze,0,2012-11-20 08:13:00
2:34 AM,32.0,26.6,80,30.08,5.0,West,3.5,-,N/A,,Haze,260,2012-11-20 08:34:00
2:53 AM,33.8,28.4,81,30.08,4.0,Calm,Calm,-,N/A,,Haze,0,2012-11-20 08:53:00
3:13 AM,35.6,30.2,81,30.09,4.0,West,4.6,-,N/A,,Haze,270,2012-11-20 09:13:00
3:33 AM,35.6,30.2,81,30.09,4.0,West,4.6,-,N/A,,Haze,260,2012-11-20 09:33:00
3:53 AM,35.6,28.4,75,30.10,4.0,West,3.5,-,N/A,,Haze,280,2012-11-20 09:53:00
4:13 AM,35.6,30.2,81,30.10,4.0,West,3.5,-,N/A,,Haze,280,2012-11-20 10:13:00
4:33 AM,35.6,30.2,81,30.11,2.5,West,3.5,-,N/A,,Haze,270,2012-11-20 10:33:00
4:54 AM,33.8,28.4,81,30.12,2.0,West,3.5,-,N/A,,Haze,270,2012-11-20 10:54:00
5:13 AM,35.6,28.4,75,30.12,1.8,WNW,3.5,-,N/A,,Haze,300,2012-11-20 11:13:00
5:34 AM,30.2,26.6,86,30.13,0.5,Calm,Calm,-,N/A,Fog,Light Freezing Fog,0,2012-11-20 11:34:00
5:53 AM,30.2,26.6,86,30.13,0.2,Calm,Calm,-,N/A,Fog,Light Freezing Fog,0,2012-11-20 11:53:00
6:14 AM,33.8,28.4,81,30.11,0.2,Calm,Calm,-,N/A,,Haze,0,2012-11-20 12:14:00
6:33 AM,28.4,24.8,86,30.12,1.0,Calm,Calm,-,N/A,,Mostly Cloudy,0,2012-11-20 12:33:00
6:53 AM,28.4,24.8,86,30.12,0.2,WSW,3.5,-,N/A,Fog,Light Freezing Fog,250,2012-11-20 12:53:00
7:14 AM,28.4,24.8,86,30.12,0.2,WSW,3.5,-,N/A,,Haze,250,2012-11-20 13:14:00
7:34 AM,28.4,23.0,80,30.14,0.2,West,3.5,-,N/A,,Haze,260,2012-11-20 13:34:00
7:54 AM,28.4,24.8,86,30.14,0.2,Calm,Calm,-,N/A,,Haze,0,2012-11-20 13:54:00
8:13 AM,30.2,26.6,86,30.14,0.2,Calm,Calm,-,N/A,Fog,Light Freezing Fog,0,2012-11-20 14:13:00
8:34 AM,30.2,26.6,86,30.15,0.2,Calm,Calm,-,N/A,Fog,Light Freezing Fog,0,2012-11-20 14:34:00
8:53 AM,33.8,28.4,81,30.15,0.2,Calm,Calm,-,N/A,,Haze,0,2012-11-20 14:53:00
9:13 AM,33.8,28.4,81,30.15,0.2,Calm,Calm,-,N/A,,Haze,0,2012-11-20 15:13:00
9:34 AM,35.6,30.2,81,30.16,0.2,Calm,Calm,-,N/A,,Haze,0,2012-11-20 15:34:00
9:53 AM,39.2,33.8,81,30.16,1.5,Calm,Calm,-,N/A,,Haze,0,2012-11-20 15:53:00
10:14 AM,41.0,35.6,81,30.16,4.0,Calm,Calm,-,N/A,,Haze,0,2012-11-20 16:14:00
10:34 AM,42.8,37.4,81,30.16,7.0,Calm,Calm,-,N/A,,Clear,0,2012-11-20 16:34:00
10:54 AM,46.4,35.6,66,30.15,7.0,Calm,Calm,-,N/A,,Clear,0,2012-11-20 16:54:00
11:13 AM,48.2,35.6,62,30.15,7.0,West,5.8,-,N/A,,Clear,260,2012-11-20 17:13:00
11:34 AM,50.0,35.6,58,30.15,10.0,West,5.8,-,N/A,,Clear,280,2012-11-20 17:34:00
11:53 AM,50.0,35.6,58,30.14,10.0,West,5.8,-,N/A,,Clear,280,2012-11-20 17:53:00
12:13 PM,51.8,35.6,54,30.14,10.0,West,6.9,-,N/A,,Clear,280,2012-11-20 18:13:00
12:34 PM,51.8,35.6,54,30.13,10.0,West,3.5,-,N/A,,Clear,270,2012-11-20 18:34:00
12:53 PM,51.8,35.6,54,30.12,10.0,Calm,Calm,-,N/A,,Clear,0,2012-11-20 18:53:00
1:14 PM,53.6,33.8,47,30.13,10.0,West,5.8,-,N/A,,Clear,280,2012-11-20 19:14:00
1:33 PM,53.6,33.8,47,30.12,10.0,Calm,Calm,-,N/A,,Clear,0,2012-11-20 19:33:00
1:53 PM,55.4,32.0,41,30.11,10.0,WSW,3.5,-,N/A,,Clear,250,2012-11-20 19:53:00
2:13 PM,55.4,30.2,38,30.11,10.0,West,3.5,-,N/A,,Clear,260,2012-11-20 20:13:00
2:33 PM,55.4,30.2,38,30.11,10.0,West,3.5,-,N/A,,Clear,270,2012-11-20 20:33:00
2:54 PM,55.4,30.2,38,30.11,10.0,WNW,3.5,-,N/A,,Clear,290,2012-11-20 20:54:00
3:13 PM,55.4,30.2,38,30.11,10.0,Calm,Calm,-,N/A,,Clear,0,2012-11-20 21:13:00
3:33 PM,55.4,30.2,38,30.11,10.0,Calm,Calm,-,N/A,,Clear,0,2012-11-20 21:33:00
3:53 PM,55.4,28.4,36,30.12,10.0,SW,3.5,-,N/A,,Clear,220,2012-11-20 21:53:00
4:14 PM,51.8,28.4,41,30.12,10.0,SSW,3.5,-,N/A,,Clear,200,2012-11-20 22:14:00
4:33 PM,51.8,26.6,38,30.11,10.0,South,3.5,-,N/A,,Clear,190,2012-11-20 22:33:00
4:53 PM,50.0,26.6,40,30.11,10.0,South,3.5,-,N/A,,Clear,190,2012-11-20 22:53:00
5:13 PM,48.2,28.4,46,30.11,10.0,SSE,3.5,-,N/A,,Clear,150,2012-11-20 23:13:00
5:33 PM,46.4,28.4,50,30.11,10.0,SSE,3.5,-,N/A,,Clear,160,2012-11-20 23:33:00
5:53 PM,44.6,28.4,53,30.11,10.0,Calm,Calm,-,N/A,,Clear,0,2012-11-20 23:53:00
6:14 PM,44.6,28.4,53,30.11,10.0,SE,4.6,-,N/A,,Clear,140,2012-11-21 00:14:00
6:34 PM,39.2,28.4,65,30.11,10.0,SE,3.5,-,N/A,,Clear,140,2012-11-21 00:34:00
6:54 PM,37.4,28.4,70,30.11,10.0,SE,4.6,-,N/A,,Clear,140,2012-11-21 00:54:00
7:14 PM,39.2,28.4,65,30.10,10.0,SSE,5.8,-,N/A,,Clear,160,2012-11-21 01:14:00
7:33 PM,42.8,28.4,57,30.10,10.0,SSE,5.8,-,N/A,,Clear,150,2012-11-21 01:33:00
7:54 PM,41.0,28.4,61,30.10,10.0,SE,6.9,-,N/A,,Clear,140,2012-11-21 01:54:00
8:14 PM,41.0,28.4,61,30.10,10.0,SE,4.6,-,N/A,,Clear,140,2012-11-21 02:14:00
8:34 PM,41.0,28.4,61,30.09,10.0,SSE,8.1,-,N/A,,Clear,160,2012-11-21 02:34:00
8:54 PM,42.8,30.2,61,30.09,10.0,SSE,9.2,-,N/A,,Clear,160,2012-11-21 02:54:00
9:13 PM,44.6,30.2,57,30.09,10.0,SSE,9.2,-,N/A,,Clear,160,2012-11-21 03:13:00
9:33 PM,44.6,30.2,57,30.08,10.0,SSE,10.4,-,N/A,,Clear,150,2012-11-21 03:33:00
9:53 PM,44.6,30.2,57,30.07,10.0,SSE,11.5,-,N/A,,Clear,150,2012-11-21 03:53:00
10:14 PM,46.4,30.2,53,30.07,10.0,SSE,13.8,-,N/A,,Clear,160,2012-11-21 04:14:00
10:34 PM,46.4,30.2,53,30.07,10.0,SSE,12.7,-,N/A,,Clear,160,2012-11-21 04:34:00
10:54 PM,46.4,30.2,53,30.06,10.0,SSE,13.8,-,N/A,,Clear,160,2012-11-21 04:54:00
11:14 PM,46.4,28.4,50,30.06,10.0,SSE,11.5,-,N/A,,Clear,160,2012-11-21 05:14:00
11:33 PM,48.2,28.4,46,30.06,10.0,South,13.8,-,N/A,,Clear,170,2012-11-21 05:33:00
11:54 PM,48.2,30.2,50,30.06,10.0,SSE,12.7,-,N/A,,Clear,160,2012-11-21 05:54:00